{"data":{"norad_id":68681,"epoch":"2026-09-19T21:33:44.772768Z","epoch_age_seconds":95898,"freshness":"FRESH","line1":"1 68681U 26077V   26262.89843487  .00010494  00000+0  32687-3 0  9996","line2":"2 68681  97.2878 132.8474 0001230  84.9537 275.1846 15.33449647 24929","mean_motion":15.33449647,"eccentricity":0.000123,"inclination_deg":97.2878,"raan_deg":132.8474,"arg_perigee_deg":84.9537,"mean_anomaly_deg":275.1846,"bstar":0.00032687,"rev_number":2492,"period_min":93.905920081378,"perigee_km":464.68757734965,"apogee_km":466.37111927133,"semimajor_km":6843.6663483105,"source":"CELESTRAK","updated_at":"2026-09-20T09:00:43.954055Z"}}